Погода в Усть-Уса

Россия / Республика Коми     65°58′45″N   56°54′48″E
темп.,
°C
ветер,
м/с
пор.,
м/с
влажн.,
%
обл.,
%
осадки,
мм/ч
давл.,
гПа
погр.,
м
23 мая, пн
пн2300:000св121994100 2.0 1001629
03:00+1св122089100 2.9 998655
06:00+1св132186100 0.5 997599
09:00+2всв91691100 1.8 997621
12:00+1всв510100100 2.0 998470
15:00+2в34100100 5.3 1000175
18:00+2юв22100100 0.1 1001300
21:00+1ююз11100100 0.3 100364
24 мая, вт
вт2400:00+1вюв11100100 0.0 100556
03:00+1в129997 0.0 1008151
06:00+3юв239374 0.0 1009242
09:00+7вюв237254 0.0 1011572
12:00+9вюв225319 0.0 10121277
15:00+11всв234449 0.0 10131595
18:00+11в444710 0.0 10131358
21:00+8в45675 0.0 101571
25 мая, ср
ср2500:00+6в597898 0.0 1016197
03:00+6в3479100 0.0 1017101
06:00+9всв456381 0.0 1016312
09:00+13вюв4652100 0.0 1016846
12:00+15вюв5645100 0.0 10151533
15:00+16вюв6646100 0.0 10141696
18:00+13в7861100 0.0 10131022
21:00+11в61185100 0.1 1011464
26 мая, чт
чт2600:00+11в4882100 0.4 1009216
03:00+12в81485100 0.5 1007302
06:00+12вюв71282100 0.2 1005273
09:00+20вюв10145899 0.2 10041128
12:00+21ю9125194 0.1 10041505
15:00+21ю575596 0.1 1004790
18:00+22в8125146 0.0 1001629
21:00+18в111872100 0.0 1000489
27 мая, пт
пт2700:00+16в916715 0.0 999318
03:00+16вюв8137787 0.0 998370
06:00+19вюв101467100 0.0 996978
09:00+12юз5587100 0.7 997246
12:00+10юз7791100 3.6 998481
15:00+9ююз6887100 4.8 1001521
18:00+9ю6986100 0.1 1003506
21:00+8ююв4891100 0.1 1004242